Date,TemperatureHighF,TemperatureAvgF,TemperatureLowF,DewpointHighF,DewpointAvgF,DewpointLowF,HumidityHigh,HumidityAvg,HumidityLow,PressureMaxIn,PressureMinIn,WindSpeedMaxMPH,WindSpeedAvgMPH,GustSpeedMaxMPH,PrecipitationSumIn
2013-8-1,62.4,29.2,0.0,58.6,56.0,54.4,98,45,85,30.11,30.07,12,3,12,0.02
2013-8-2,62.5,59.3,56.9,59.9,58.1,56.6,100,96,89,30.15,30.09,8,4,8,0.02
2013-8-3,65.0,60.1,57.6,61.0,58.1,56.3,97,93,87,30.15,30.08,4,0,4,0.00
2013-8-4,61.1,56.9,54.4,58.8,55.9,53.6,99,96,92,30.09,30.02,10,3,10,0.00
2013-8-5,56.7,54.4,52.1,55.0,53.6,51.8,100,96,93,30.09,30.02,7,0,7,0.00
2013-8-6,58.1,54.3,51.4,56.1,53.6,50.8,99,98,93,30.03,30.00,2,0,6,0.00
2013-8-7,61.6,57.0,51.1,57.5,55.8,50.8,100,95,85,30.09,30.01,6,1,11,0.00
2013-8-8,61.3,57.6,55.3,59.5,56.8,55.3,100,95,89,30.08,30.00,13,1,13,0.00
2013-8-9,59.5,57.1,55.3,58.4,56.4,55.0,100,97,93,30.01,29.93,1,0,7,0.00
2013-8-10,56.5,56.1,55.3,56.2,55.8,55.1,100,99,99,30.00,29.97,0,0,5,0.04
2013-8-11,63.6,60.1,53.6,58.5,56.4,52.3,96,88,79,30.10,30.05,1,0,5,0.00
2013-8-12,63.9,59.0,52.9,58.0,55.8,51.8,99,89,79,30.11,30.06,0,0,6,0.00
2013-8-13,66.8,57.1,47.7,59.6,54.0,46.8,99,89,72,30.13,29.95,1,0,5,0.00
2013-8-14,66.5,57.8,50.7,61.2,56.5,49.6,99,96,78,29.98,29.94,1,0,6,0.33
2013-8-15,63.3,60.6,56.4,62.8,60.2,55.8,100,98,96,30.01,29.94,0,0,5,0.03
2013-8-16,67.9,60.0,34.4,64.6,58.9,34.1,100,91,87,30.06,29.99,2,0,9,0.01
2013-8-17,65.4,60.7,34.4,62.7,59.4,34.1,100,94,83,30.12,30.04,2,0,9,0.01
2013-8-18,95.8,61.0,54.8,95.5,59.7,54.2,100,91,84,30.17,30.10,3,0,9,0.01
2013-8-19,68.0,60.1,53.3,64.2,58.4,52.9,100,94,85,30.15,30.09,2,0,9,0.00
2013-8-20,65.2,59.1,52.5,59.8,56.1,51.6,98,90,80,30.18,30.09,0,0,4,0.00
2013-8-21,68.2,58.1,47.7,60.6,54.5,46.9,100,89,65,30.09,29.94,2,0,6,0.00
2013-8-22,67.3,58.0,48.3,60.8,56.0,47.4,100,93,74,29.95,29.87,3,0,11,0.00
2013-8-23,65.8,60.7,58.0,62.6,59.5,57.7,100,96,82,29.93,29.89,3,0,12,0.02
2013-8-24,65.7,60.0,54.0,61.9,58.9,53.4,100,96,85,29.95,29.90,2,0,9,0.00
2013-8-25,62.9,56.2,49.9,60.8,54.9,49.4,100,95,86,29.96,29.91,1,0,7,0.01
2013-8-26,64.9,56.4,48.4,59.7,55.2,47.9,100,96,74,29.95,29.89,3,0,13,0.03
2013-8-27,65.7,61.2,57.4,64.8,60.7,57.4,100,98,91,29.95,29.83,1,0,7,0.00
2013-8-28,67.5,62.8,60.3,65.6,62.2,60.3,100,98,89,29.92,29.83,2,0,7,0.01
2013-8-29,65.0,62.3,60.9,65.0,62.3,60.9,100,100,100,30.04,29.84,3,1,22,0.14
2013-8-30,65.5,61.7,58.1,63.8,61.2,57.6,100,98,92,30.17,30.05,2,0,9,0.00
2013-8-31,75.6,61.7,53.2,66.3,59.3,53.2,100,93,64,30.09,29.87,2,0,6,0.00